This demonstration page uses our WeatherBlox Daily Observations layout. Learn more.

Hourly Observations for July 23, 2018

Temp ( °F °C ) Dew Point ( °F °C ) Humidity (%) Winds ( mph kmh ) Pressure ( in mb ) Visibility ( mi km ) Precip ( " mm )
12:15 am 00:15 Partly Cloudy with Light Rain 71 21.7 69 20.8 95 95 E 3 6 30.03 1017 10 16.0934 0 0
12:35 am 00:35 Clear 71 21.5 69 20.8 96 96 ESE 3 6 30.03 1017 10 16.0934 0 0
12:55 am 00:55 Clear 71 21.6 69 20.5 93 93 Calm 30.03 1017 10 16.0934 0 0
1:15 am 01:15 Clear 70 21.3 69 20.4 95 95 ESE 3 6 30 1016 10 16.0934 0 0
1:35 am 01:35 Clear 70 21.1 68 20.2 95 95 ENE 3 6 30.03 1017 10 16.0934 0 0
1:55 am 01:55 Mostly Cloudy 70 21.1 68 20.2 95 95 Calm 30.03 1017 10 16.0934 0 0
2:15 am 02:15 Cloudy 71 21.5 69 20.4 93 93 NE 5 7 30.03 1017 10 16.0934 0 0
2:35 am 02:35 Cloudy 73 22.5 66 19.1 81 81 NNE 16 26 30.06 1018 10 16.0934 0 0
2:55 am 02:55 Mostly Cloudy 70 21.2 67 19.5 90 90 E 8 13 30.03 1017 10 16.0934 0 0
3:15 am 03:15 Partly Cloudy 69 20.8 67 19.6 93 93 E 6 9 30.03 1017 10 16.0934 0 0
3:35 am 03:35 Clear 69 20.8 67 19.6 93 93 ESE 5 7 30.03 1017 10 16.0934 0 0
3:55 am 03:55 Clear 69 20.6 68 19.8 95 95 SSE 5 7 30 1016 10 16.0934 0 0
4:15 am 04:15 Clear 69 20.4 67 19.6 95 95 Calm 30.06 1018 10 16.0934 0 0
4:35 am 04:35 Clear 69 20.6 67 19.6 94 94 Calm 30.06 1018 10 16.0934 0 0
4:55 am 04:55 Partly Cloudy 67 19.6 67 19.2 98 98 W 3 6 30.06 1018 10 16.0934 0 0
5:15 am 05:15 Cloudy 67 19.7 67 19.6 99 99 W 5 7 30.06 1018 10 16.0934 0 0
5:35 am 05:35 Cloudy with Light Rain 68 20.2 68 19.9 98 98 WNW 5 7 30.06 1018 10 16.0934 0 0
5:55 am 05:55 Mostly Cloudy with Light Rain 69 20.7 68 20 96 96 SW 3 6 30.03 1017 10 16.0934 0.04 1.016
6:15 am 06:15 Partly Cloudy 69 20.5 67 19.7 95 95 WSW 3 6 30.06 1018 10 16.0934 0 0
6:35 am 06:35 Mostly Cloudy 69 20.3 67 19.7 96 96 W 3 6 30.06 1018 10 16.0934 0 0
6:55 am 06:55 Mostly Cloudy 68 20.1 68 19.9 99 99 NNW 5 7 30.06 1018 10 16.0934 0 0
7:15 am 07:15 Partly Cloudy 68 20.1 68 20.1 100 100 Calm 30.06 1018 7 11.26538 0 0
7:35 am 07:35 Mostly Cloudy 69 20.5 69 20.3 99 99 Calm 30.09 1019 7 11.26538 0 0
7:55 am 07:55 Cloudy with Mist and Fog 69 20.6 69 20.6 100 100 NNE 5 7 30.09 1019 5 8.0467 0 0
8:15 am 08:15 Cloudy with Mist and Fog 69 20.6 69 20.6 100 100 N 9 15 30.09 1019 5 8.0467 0 0
8:35 am 08:35 Cloudy 69 20.7 69 20.6 99 99 NNE 7 11 30.09 1019 7 11.26538 0 0
8:55 am 08:55 Cloudy 70 21 69 20.7 98 98 NNE 5 7 30.06 1018 10 16.0934 0 0
9:15 am 09:15 Cloudy 71 21.5 70 20.9 96 96 N 6 9 30.09 1019 10 16.0934 0 0
9:35 am 09:35 Cloudy 71 21.5 69 20.7 95 95 N 7 11 30.06 1018 10 16.0934 0 0
9:55 am 09:55 Cloudy 71 21.7 69 20.6 94 94 N 6 9 30.06 1018 10 16.0934 0 0
10:15 am 10:15 Cloudy 73 22.5 69 20.7 90 90 N 8 13 30.06 1018 10 16.0934 0 0
10:35 am 10:35 Cloudy 73 23 70 20.9 88 88 NNE 13 20 30.09 1019 10 16.0934 0 0
10:55 am 10:55 Cloudy 72 22.3 69 20.8 91 91 N 10 17 30.09 1019 10 16.0934 0 0
11:15 am 11:15 Cloudy 74 23.2 70 21.1 88 88 N 14 22 30.09 1019 10 16.0934 0 0
11:35 am 11:35 Cloudy 75 23.9 70 21.2 85 85 N 9 15 30.09 1019 10 16.0934 0 0
11:55 am 11:55 Cloudy 77 25 70 20.9 78 78 N 10 17 30.06 1018 10 16.0934 0 0
12:15 pm 12:15 Partly Cloudy 77 25.2 69 20.6 76 76 NNE 13 20 30.06 1018 10 16.0934 0 0
12:35 pm 12:35 Mostly Cloudy 77 24.9 69 20.5 77 77 NNE 12 19 30.09 1019 10 16.0934 0 0
12:55 pm 12:55 Partly Cloudy 78 25.8 69 20.3 72 72 NE 14 22 30.06 1018 10 16.0934 0 0
1:15 pm 13:15 Mostly Cloudy 78 25.6 69 20.3 73 73 NNE 10 17 30.03 1017 10 16.0934 0 0
1:35 pm 13:35 Mostly Cloudy 80 26.5 69 20.3 69 69 N 9 15 30.03 1017 10 16.0934 0 0
1:55 pm 13:55 Mostly Cloudy 80 26.9 68 19.8 65 65 N 12 19 30.03 1017 10 16.0934 0 0
2:15 pm 14:15 Partly Cloudy 80 26.6 67 19.7 66 66 NNE 12 19 30.03 1017 10 16.0934 0 0
2:35 pm 14:35 Partly Cloudy 81 27 67 19.7 64 64 NNE 12 19 30.03 1017 10 16.0934 0 0
2:55 pm 14:55 Sunny 81 27.3 67 19.3 62 62 NNE 10 17 30.03 1017 10 16.0934 0 0
3:15 pm 15:15 Sunny 81 27.2 66 19.1 61 61 NE 15 24 30.03 1017 10 16.0934 0 0
3:35 pm 15:35 Partly Cloudy 81 27.2 66 18.7 60 60 NE 10 17 30.03 1017 10 16.0934 0 0
3:55 pm 15:55 Partly Cloudy 81 27.4 65 18.1 57 57 NNE 9 15 30.03 1017 10 16.0934 0 0
4:15 pm 16:15 Sunny 82 27.5 64 17.9 56 56 NNE 12 19 30.03 1017 10 16.0934 0 0
4:35 pm 16:35 Sunny 81 27.3 65 18.1 57 57 NNE 9 15 30.03 1017 10 16.0934 0 0
4:55 pm 16:55 Sunny 81 27.1 64 17.9 57 57 NNE 8 13 30.03 1017 10 16.0934 0 0
5:15 pm 17:15 Sunny 82 27.5 64 17.8 56 56 NNE 12 19 30.03 1017 10 16.0934 0 0
5:35 pm 17:35 Sunny 81 27.3 63 17.4 55 55 NNE 10 17 30.03 1017 10 16.0934 0 0
5:55 pm 17:55 Sunny 81 27.1 64 17.9 57 57 NNE 9 15 30.03 1017 10 16.0934 0 0
6:15 pm 18:15 Sunny 81 27 64 17.9 58 58 NNE 10 17 30.03 1017 10 16.0934 0 0
6:35 pm 18:35 Sunny 80 26.6 64 17.5 57 57 NNE 13 20 30.03 1017 10 16.0934 0 0
6:55 pm 18:55 Sunny 80 26.4 63 17 56 56 NNE 8 13 30.03 1017 10 16.0934 0 0
7:15 pm 19:15 Sunny 78 25.7 64 17.7 61 61 NNE 7 11 30.03 1017 10 16.0934 0 0
7:35 pm 19:35 Sunny 76 24.5 65 18.5 69 69 NNE 6 9 30.06 1018 10 16.0934 0 0
7:55 pm 19:55 Sunny 75 24 64 17.9 69 69 NE 7 11 30.06 1018 10 16.0934 0 0
8:15 pm 20:15 Sunny 72 22.4 64 17.9 76 76 NNE 6 9 30.06 1018 10 16.0934 0 0
8:35 pm 20:35 Sunny 70 21.2 65 18.4 84 84 NNE 6 9 30.06 1018 10 16.0934 0 0
8:55 pm 20:55 Sunny 69 20.7 64 18 85 85 NNE 5 7 30.12 1020 10 16.0934 0 0
9:15 pm 21:15 Clear 67 19.7 65 18.1 91 91 NNE 5 7 30.12 1020 10 16.0934 0 0
9:35 pm 21:35 Clear 66 19 64 17.6 92 92 NE 5 7 30.09 1019 7 11.26538 0 0
9:55 pm 21:55 Clear 65 18.6 63 17.3 92 92 NE 6 9 30.09 1019 10 16.0934 0 0
10:15 pm 22:15 Clear 65 18.5 63 17.3 93 93 NNE 3 6 30.12 1020 10 16.0934 0 0
10:35 pm 22:35 Clear 65 18.6 63 17.1 91 91 NNE 6 9 30.12 1020 10 16.0934 0 0
10:55 pm 22:55 Clear 64 17.7 62 16.6 93 93 NNE 3 6 30.15 1021 10 16.0934 0 0
11:15 pm 23:15 Clear 65 18.4 62 16.9 91 91 Calm 30.12 1020 10 16.0934 0 0
11:35 pm 23:35 Clear 64 18 63 17 94 94 Calm 30.12 1020 10 16.0934 0 0
11:55 pm 23:55 Clear 64 17.6 63 17 96 96 Calm 30.15 1021 10 16.0934 0 0

Powered by AerisWeather